LANDSAT 4 1 13367U 82072A 12037.17966091 .00002466 00000-0 17555-3 0 9715 2 13367 098.2651 025.9556 0017219 337.1966 022.8500 15.05582421589338 TDRS 1 1 13969U 83026B 12034.98454699 +.00000026 +00000-0 +10000-3 0 03717 2 13969 013.7318 003.5046 0018210 115.8557 244.3758 00.98743015078550 LANDSAT 5 1 14780U 84021A 12037.38032565 .00000157 00000-0 44737-4 0 6539 2 14780 098.1628 105.5372 0002583 357.5345 002.5844 14.57152334485790 ERBS 1 15354U 84108B 12037.51748592 .00003608 00000-0 18421-3 0 8651 2 15354 056.9835 128.5862 0019509 054.9786 305.3086 15.19020719498361 TDRS 3 1 19548U 88091B 12035.10764427 -.00000291 00000-0 10000-3 0 8003 2 19548 013.4941 029.7200 0013593 337.2378 116.6721 01.00278446 72796 TDRS 4 1 19883U 89021B 12035.02846983 +.00000012 +00000-0 +00000-0 0 01940 2 19883 010.7164 035.6176 0012399 205.7397 154.2740 00.98482056256351 HST 1 20580U 90037B 12036.06260360 .00001506 00000-0 99186-4 0 9381 2 20580 028.4708 294.4865 0003299 082.7422 277.3608 15.02161937994697 TDRS 5 1 21639U 91054B 12037.23319079 .00000099 00000-0 10000-3 0 35 2 21639 011.8852 044.0284 0016109 325.4131 042.6990 01.00268605 75130 UARS (Decayed 2011-09-24) 1 21701U 91063B 11267.10904230 .15227068 11945-4 11522-3 0 6442 2 21701 056.9313 262.1789 0003645 318.1436 041.9334 16.52554649109189 TOPEX/POSEIDON 1 22076U 92052A 12037.54442812 -.00000038 00000-0 10000-3 0 8072 2 22076 066.0375 227.5510 0007144 265.3080 094.7120 12.80964224911763 TDRS 6 1 22314U 93003B 12032.29189145 +.00000087 +00000-0 +10000-3 0 00208 2 22314 011.2764 046.9410 0009279 345.5297 032.0726 01.00275218069800 TDRS 7 1 23613U 95035B 12036.79515145 -.00000192 00000-0 10000-3 0 1502 2 23613 012.9030 037.2981 0033040 334.9550 134.2262 01.00274700 60659 XTE 1 23757U 95074A 12036.96629969 .00004467 00000-0 11988-3 0 5725 2 23757 022.9917 349.9602 0007421 210.5025 149.5050 15.33195110893461 TRMM 1 25063U 97074A 12037.50154835 .00015600 00000-0 21616-3 0 8942 2 25063 034.9626 080.1320 0000320 277.5086 082.5549 15.56145030810396 ETS 7 1 25064U 97074B 12037.41494104 .00005443 00000-0 17988-3 0 5442 2 25064 034.9714 051.5985 0005613 340.2014 019.8484 15.30693902788453 ISS (ZARYA) 1 25544U 98067A 12037.58861690 .00009544 00000-0 12695-3 0 9589 2 25544 051.6422 062.1565 0020255 013.6755 127.2191 15.58718309757490 LANDSAT 7 1 25682U 99020A 12037.21432233 .00000138 00000-0 40682-4 0 7901 2 25682 098.2137 107.3494 0000844 129.0815 231.0471 14.57105164681462 FUSE 1 1 25791U 99035A 12036.77471589 .00000340 00000-0 47779-4 0 1784 2 25791 024.9843 180.2548 0010349 318.4176 041.5548 14.41983905665616 TERRA 1 25994U 99068A 12037.43630979 .00000188 00000-0 51690-4 0 6983 2 25994 098.2068 113.3878 0000955 081.8701 278.2600 14.57091085645571 TDRS 8 1 26388U 00034A 12036.87708639 -.00000223 00000-0 10000-3 0 5802 2 26388 003.6470 079.3577 0003976 213.5928 247.3398 01.00275961 42599 EO 1 1 26619U 00075A 12037.36860200 .00000209 00000-0 50476-4 0 543 2 26619 098.0951 104.9832 0010392 159.7645 200.3962 14.62516224597160 TIMED 1 26998U 01055B 12036.84157475 .00000578 00000-0 72413-4 0 1003 2 26998 074.0719 243.6036 0000874 127.2344 232.8891 14.84789436550490 TDRS 9 1 27389U 02011A 12034.95123014 -.00000260 00000-0 00000+0 0 8322 2 27389 001.5072 145.9613 0015157 226.3526 062.3546 01.00279722 37826 AQUA 1 27424U 02022A 12036.70058374 .00000483 00000-0 11738-3 0 2059 2 27424 098.2210 339.0627 0001235 082.6691 277.4632 14.57090522519074 TDRS 10 1 27566U 02055A 12037.42023917 .00000084 00000-0 00000+0 0 5862 2 27566 001.2469 062.9786 0013386 201.2680 208.6490 01.00275160 33678 SORCE 1 27651U 03004A 12037.41257943 .00000865 00000-0 11893-3 0 7145 2 27651 039.9976 032.0890 0026460 214.3644 145.5423 14.83287871489420 GALEX 1 27783U 03017A 12037.36721136 .00000555 00000-0 91692-4 0 4227 2 27783 028.9981 149.9995 0004397 208.8276 151.2064 14.60234103468807 GP-B 1 28230U 04014A 12035.86651106 +.00000463 +00000-0 +64414-4 0 03437 2 28230 089.9206 150.1212 0002363 061.7258 298.4199 14.76464752419783 AURA 1 28376U 04026A 12037.53014981 .00000463 00000-0 11285-3 0 3641 2 28376 098.2233 342.0328 0001100 092.1577 267.9733 14.57102300402242 SWIFT 1 28485U 04047A 12037.34930799 .00002090 00000-0 15199-3 0 821 2 28485 020.5572 052.1442 0013879 150.3751 209.7461 14.94331370393951 THEMIS A 1 30580U 07004A 12038.20833333 .00000020 00000-0 00000+0 0 2934 2 30580 006.6008 130.4311 7934037 308.5572 351.0631 01.00265803 17589 ARTEMIS P1 (THEMIS B) 1 30581U 07004B 10095.89583333 -.15399425 00000-0 99999-4 0 2840 2 30581 016.6405 318.7761 9672524 258.4792 301.1994 00.02053516 6438 ARTEMIS P2 (THEMIS C) 1 30582U 07004C 10095.94791667 -.00028999 00000-0 99999-4 0 4603 2 30582 025.5707 349.3222 6489751 071.1237 089.1304 00.02043025 5772 THEMIS D 1 30797U 07004D 12038.16666667 .00000001 00000-0 00000+0 0 4473 2 30797 004.4235 064.7282 7696406 013.1001 351.0306 01.00279823 17423 THEMIS E 1 30798U 07004E 12038.16666667 -.00000011 00000-0 10000-3 0 4729 2 30798 003.6454 081.4979 7897675 359.3588 347.2436 01.00280802 17580 AIM 1 31304U 07015A 12037.32607152 .00003282 00000-0 30592-3 0 6054 2 31304 097.8252 146.0958 0009685 260.7036 099.3086 14.94921067260647 C/NOFS 1 32765U 08017A 12036.49169555 .00016295 00000-0 68858-3 0 9772 2 32765 013.0074 114.7149 0275320 235.4118 121.9892 14.92090358206696 GLAST 1 33053U 08029A 12036.85265026 .00000280 00000-0 00000+0 0 9785 2 33053 025.5855 326.1571 0013705 029.3736 330.7536 15.05998081201249 WISE 1 36119U 09071A 12037.52918835 .00002056 00000-0 11417-3 0 6235 2 36119 097.5170 043.5121 0002987 349.1787 010.9380 15.14847246118555